TimeCDT,TemperatureF,Dew PointF,Humidity,Sea Level PressureIn,VisibilityMPH,Wind Direction,Wind SpeedMPH,Gust SpeedMPH,PrecipitationIn,Events,Conditions,WindDirDegrees,DateUTC
12:15 AM,53.4,52.0,95,30.01,10.0,Calm,Calm,-,N/A,,Mostly Cloudy,0,2013-08-09 05:15:00
12:35 AM,54.1,51.4,91,30.01,10.0,Calm,Calm,-,N/A,,Scattered Clouds,0,2013-08-09 05:35:00
12:55 AM,52.2,51.3,97,30.00,10.0,Calm,Calm,-,N/A,,Scattered Clouds,0,2013-08-09 05:55:00
1:15 AM,51.6,50.4,95,30.00,10.0,Calm,Calm,-,N/A,,Clear,0,2013-08-09 06:15:00
1:35 AM,51.6,50.5,96,30.00,10.0,Calm,Calm,-,N/A,,Clear,0,2013-08-09 06:35:00
1:55 AM,51.3,49.8,95,30.00,10.0,Calm,Calm,-,N/A,,Scattered Clouds,0,2013-08-09 06:55:00
2:15 AM,51.4,50.5,97,30.00,10.0,Calm,Calm,-,N/A,,Overcast,0,2013-08-09 07:15:00
2:35 AM,53.1,52.2,97,30.00,10.0,Calm,Calm,-,N/A,,Overcast,0,2013-08-09 07:35:00
2:55 AM,54.0,52.0,93,30.00,10.0,Calm,Calm,-,N/A,,Overcast,0,2013-08-09 07:55:00
3:15 AM,54.5,53.1,95,29.99,10.0,Calm,Calm,-,N/A,,Overcast,0,2013-08-09 08:15:00
3:35 AM,54.0,52.0,93,29.98,10.0,Calm,Calm,-,N/A,,Mostly Cloudy,0,2013-08-09 08:35:00
3:55 AM,54.7,51.8,90,29.98,10.0,Calm,Calm,-,N/A,,Mostly Cloudy,0,2013-08-09 08:55:00
4:15 AM,54.7,51.8,90,29.98,10.0,Calm,Calm,-,N/A,,Mostly Cloudy,0,2013-08-09 09:15:00
4:35 AM,53.1,50.7,92,29.98,10.0,Calm,Calm,-,N/A,,Scattered Clouds,0,2013-08-09 09:35:00
4:55 AM,51.1,50.0,96,29.98,10.0,Calm,Calm,-,N/A,,Mostly Cloudy,0,2013-08-09 09:55:00
5:15 AM,53.1,51.3,94,29.98,10.0,Calm,Calm,-,N/A,,Overcast,0,2013-08-09 10:15:00
5:35 AM,53.1,51.1,93,29.97,10.0,Calm,Calm,-,N/A,,Mostly Cloudy,0,2013-08-09 10:35:00
5:55 AM,51.4,50.2,95,29.98,10.0,SW,4.6,-,N/A,,Scattered Clouds,230,2013-08-09 10:55:00
6:15 AM,51.6,50.7,97,29.98,10.0,West,4.6,-,N/A,,Mostly Cloudy,260,2013-08-09 11:15:00
6:35 AM,55.4,53.8,94,29.98,10.0,WSW,4.6,-,N/A,,Overcast,250,2013-08-09 11:35:00
6:55 AM,56.3,54.0,92,29.98,10.0,West,4.6,-,N/A,,Mostly Cloudy,270,2013-08-09 11:55:00
7:15 AM,57.7,54.5,89,29.98,10.0,West,5.8,-,N/A,,Clear,280,2013-08-09 12:15:00
7:35 AM,58.5,55.2,89,29.98,10.0,West,5.8,-,N/A,,Clear,280,2013-08-09 12:35:00
7:55 AM,60.4,55.9,85,29.99,10.0,WNW,5.8,-,N/A,,Scattered Clouds,300,2013-08-09 12:55:00
8:15 AM,60.1,56.1,87,29.99,10.0,WNW,4.6,-,N/A,,Mostly Cloudy,300,2013-08-09 13:15:00
8:35 AM,62.4,56.5,81,30.00,10.0,NW,8.1,-,N/A,,Scattered Clouds,310,2013-08-09 13:35:00
8:55 AM,63.0,56.5,79,29.99,10.0,WNW,6.9,-,N/A,,Scattered Clouds,300,2013-08-09 13:55:00
9:15 AM,64.8,56.5,74,29.98,10.0,NW,8.1,-,N/A,,Clear,310,2013-08-09 14:15:00
9:35 AM,65.7,55.4,69,29.98,10.0,WNW,11.5,16.1,N/A,,Clear,300,2013-08-09 14:35:00
9:55 AM,66.0,54.1,65,29.99,10.0,NW,12.7,17.3,N/A,,Clear,310,2013-08-09 14:55:00
10:15 AM,67.1,54.0,63,29.99,10.0,WNW,13.8,18.4,N/A,,Scattered Clouds,290,2013-08-09 15:15:00
10:35 AM,67.5,53.2,60,30.00,10.0,NW,8.1,13.8,N/A,,Scattered Clouds,310,2013-08-09 15:35:00
10:55 AM,68.7,52.3,56,30.00,10.0,WNW,16.1,19.6,N/A,,Scattered Clouds,290,2013-08-09 15:55:00
11:15 AM,68.5,50.5,53,30.00,10.0,WNW,13.8,23.0,N/A,,Scattered Clouds,300,2013-08-09 16:15:00
11:35 AM,68.5,50.4,52,29.99,10.0,WNW,16.1,24.2,N/A,,Scattered Clouds,300,2013-08-09 16:35:00
11:55 AM,68.7,49.1,50,30.00,10.0,WNW,15.0,20.7,N/A,,Clear,300,2013-08-09 16:55:00
12:15 PM,69.6,49.8,49,30.00,10.0,NW,18.4,24.2,N/A,,Clear,320,2013-08-09 17:15:00
12:35 PM,69.1,49.1,49,30.00,10.0,NW,12.7,18.4,N/A,,Scattered Clouds,320,2013-08-09 17:35:00
12:55 PM,69.1,49.1,49,30.00,10.0,NW,15.0,23.0,N/A,,Scattered Clouds,320,2013-08-09 17:55:00
1:15 PM,68.9,47.7,47,30.00,10.0,NW,11.5,23.0,N/A,,Scattered Clouds,310,2013-08-09 18:15:00
1:35 PM,69.4,48.2,47,30.00,10.0,NW,11.5,20.7,N/A,,Scattered Clouds,320,2013-08-09 18:35:00
1:55 PM,70.2,47.8,45,30.01,10.0,NW,13.8,18.4,N/A,,Scattered Clouds,310,2013-08-09 18:55:00
2:15 PM,69.1,46.9,45,30.01,10.0,NW,12.7,17.3,N/A,,Clear,320,2013-08-09 19:15:00
2:35 PM,68.0,46.6,46,30.01,10.0,NW,9.2,16.1,N/A,,Clear,320,2013-08-09 19:35:00
2:55 PM,70.0,48.0,46,30.01,10.0,NW,11.5,16.1,N/A,,Mostly Cloudy,320,2013-08-09 19:55:00
3:15 PM,68.0,47.5,48,30.02,10.0,NW,6.9,-,N/A,,Mostly Cloudy,310,2013-08-09 20:15:00
3:35 PM,69.1,48.6,48,30.02,10.0,NW,9.2,-,N/A,,Mostly Cloudy,310,2013-08-09 20:35:00
3:55 PM,69.8,48.7,47,30.02,10.0,WNW,10.4,16.1,N/A,,Mostly Cloudy,300,2013-08-09 20:55:00
4:15 PM,69.3,47.8,46,30.02,10.0,WNW,9.2,-,N/A,,Scattered Clouds,300,2013-08-09 21:15:00
4:35 PM,69.3,48.4,47,30.02,10.0,NW,8.1,-,N/A,,Mostly Cloudy,310,2013-08-09 21:35:00
4:55 PM,67.1,48.7,52,30.02,10.0,WNW,5.8,-,N/A,,Mostly Cloudy,300,2013-08-09 21:55:00
5:15 PM,68.0,49.6,52,30.02,10.0,WNW,5.8,-,N/A,,Scattered Clouds,300,2013-08-09 22:15:00
5:35 PM,68.2,48.7,50,30.03,10.0,NW,9.2,-,N/A,,Mostly Cloudy,320,2013-08-09 22:35:00
5:55 PM,66.9,49.1,53,30.03,10.0,NNW,8.1,-,N/A,,Overcast,330,2013-08-09 22:55:00
6:15 PM,66.4,49.1,54,30.03,10.0,NNW,6.9,-,N/A,,Overcast,330,2013-08-09 23:15:00
6:35 PM,65.8,50.2,57,30.04,10.0,NNW,6.9,-,N/A,,Overcast,340,2013-08-09 23:35:00
6:55 PM,65.5,50.0,57,30.04,10.0,NNW,6.9,-,N/A,,Overcast,340,2013-08-09 23:55:00
7:15 PM,64.4,51.3,62,30.05,10.0,NNW,5.8,-,N/A,,Overcast,330,2013-08-10 00:15:00
7:35 PM,63.1,52.3,68,30.05,10.0,North,4.6,-,N/A,,Overcast,10,2013-08-10 00:35:00
7:55 PM,62.1,51.6,69,30.05,10.0,North,4.6,-,N/A,,Overcast,360,2013-08-10 00:55:00
8:15 PM,61.7,51.6,69,30.06,10.0,North,3.5,-,N/A,,Overcast,350,2013-08-10 01:15:00
8:35 PM,60.8,52.7,75,30.07,10.0,North,3.5,-,N/A,,Overcast,360,2013-08-10 01:35:00
8:55 PM,60.8,53.1,76,30.08,10.0,Calm,Calm,-,N/A,,Overcast,0,2013-08-10 01:55:00
9:15 PM,60.3,54.0,80,30.09,10.0,Calm,Calm,-,N/A,,Overcast,0,2013-08-10 02:15:00
9:35 PM,60.1,53.2,78,30.08,10.0,Calm,Calm,-,N/A,,Overcast,0,2013-08-10 02:35:00
9:55 PM,59.9,53.4,79,30.09,10.0,Calm,Calm,-,N/A,,Overcast,0,2013-08-10 02:55:00
10:15 PM,59.5,53.8,81,30.08,10.0,Calm,Calm,-,N/A,,Overcast,0,2013-08-10 03:15:00
10:35 PM,59.0,55.2,87,30.09,10.0,Calm,Calm,-,N/A,,Overcast,0,2013-08-10 03:35:00
10:55 PM,59.2,54.1,83,30.09,10.0,WNW,3.5,-,N/A,,Overcast,300,2013-08-10 03:55:00
11:15 PM,59.0,53.4,82,30.09,10.0,Calm,Calm,-,N/A,,Overcast,0,2013-08-10 04:15:00
11:35 PM,58.8,52.9,81,30.10,10.0,Calm,Calm,-,N/A,,Overcast,0,2013-08-10 04:35:00
11:55 PM,58.3,52.7,82,30.10,10.0,Calm,Calm,-,N/A,,Overcast,0,2013-08-10 04:55:00